STARLINK-5478 (55642 NORAD) Tracking and Keplerian Element Data

This shows tracking and keplerian element data for the satellite.

Feedback or suggestion? Click here.




ElementValue
Catalog55642
NameSTARLINK-5478
Epoch Orbit130
Epoch Day62.91667824
Epoch Year2023
RAAN110.2018
Inclination69.9997
Eccentricity0.0003519
Argument of Perigee272.6274
Mean Anonmoly320.7684
Mean Motion15.74935208
Decay Rate-0.01029617
L11 55642U 23021Q 23062.91667824 -.01029617 00000+0 -76655-2 0 9994
L22 55642 69.9997 110.2018 0003519 272.6274 320.7684 15.74935208 1302



Live tracking and technical data element details for STARLINK-5478 (NORAD 55642). STARLINK-5478 can be tracked NOW for your location showing map with azimuth and elevation plus other details from your city location.







IsCatalogInMostPopularTable: catalog: 55642, numindb: 1
Update: records affected: 1



GetName: 55642 STARLINK-5478

Hit Count: updated at: Wed, 22 Mar 2023 16:50:06 GMT